DW9181 Weather Reports


time (UTC)temp
F
wind
direction
speed
knots
gust
knots
rain 1hr
in
rain 24hr
in
rain mn
in
humidity
%
barometer
mb
20260504050025 41 154 0.0 0.0 0.00 0.00 0.00 71 995.5
20260504044522 42 154 0.0 1.7 0.00 0.00 0.00 69 995.5
20260504043018 43 247 0.0 0.0 0.00 0.00 0.00 67 995.5
20260504041515 44 247 0.0 0.0 0.00 0.00 0.00 65 995.4
20260504040014 44 247 0.0 0.9 0.00 0.00 0.00 65 995.5
20260504034512 45 247 0.0 1.7 0.00 0.00 0.00 61 995.3
20260504033013 46 247 0.0 0.9 0.00 0.00 0.00 59 995.2
20260504031512 47 247 0.0 0.0 0.00 0.00 0.00 56 995.3
20260504030010 46 247 0.0 0.0 0.00 0.00 0.00 57 995.4
20260504024510 45 247 0.0 0.0 0.00 0.00 0.00 64 995.3
20260504023011 45 247 0.0 0.0 0.00 0.00 0.00 64 995.3
20260504021511 45 247 0.0 0.0 0.00 0.00 0.00 64 995.2
20260504020007 46 247 0.0 0.0 0.00 0.00 0.00 61 995.0
20260504014507 47 247 0.0 0.0 0.00 0.00 0.00 57 994.9
20260504013007 48 247 0.0 0.0 0.00 0.00 0.00 55 994.9
20260504011505 49 247 0.0 0.0 0.00 0.00 0.00 53 994.7
20260504010005 50 247 0.0 0.0 0.00 0.00 0.00 49 994.7
20260504004515 52 247 0.0 0.0 0.00 0.00 0.00 47 994.6
20260504003004 54 247 0.0 0.0 0.00 0.00 0.00 43 994.5
20260504001512 56 247 0.0 0.0 0.00 0.00 0.00 38 994.4
20260504000003 57 247 0.0 0.9 0.00 0.00 0.00 35 994.2
20260503234502 59 247 0.0 0.0 0.00 0.00 0.00 34 994.1
20260503233110 60 247 0.9 3.5 0.00 0.00 0.00 32 994.1
20260503231600 60 348 1.7 3.5 0.00 0.00 0.00 31 993.9
20260503230113 60 267 1.7 5.2 0.00 0.00 0.00 30 993.9
20260503224609 61 291 1.7 6.1 0.00 0.00 0.00 30 993.9
20260503223112 61 285 0.9 3.5 0.00 0.00 0.00 33 993.8
20260503221557 61 267 1.7 7.0 0.00 0.00 0.00 31 994.0
20260503220056 61 243 2.6 7.0 0.00 0.00 0.00 30 994.0
20260503214558 61 234 3.5 7.8 0.00 0.00 0.00 29 994.1
20260503213055 61 265 2.6 7.8 0.00 0.00 0.00 30 994.0
20260503211552 62 271 1.7 8.7 0.00 0.00 0.00 29 994.1
20260503210050 61 221 4.3 9.6 0.00 0.00 0.00 29 994.1
20260503204548 60 257 2.6 6.1 0.00 0.00 0.00 31 994.2
20260503203047 61 5 3.5 7.0 0.00 0.00 0.00 31 994.1
20260503201548 60 280 2.6 7.8 0.00 0.00 0.00 29 994.4
20260503200045 60 253 0.9 7.0 0.00 0.00 0.00 32 994.5
20260503194546 60 277 1.7 7.8 0.00 0.00 0.00 31 994.8
20260503193039 58 273 1.7 6.1 0.00 0.00 0.00 33 995.0
20260503191537 59 327 0.0 5.2 0.00 0.00 0.00 31 995.1
20260503190042 60 323 1.7 11.3 0.00 0.00 0.00 35 995.3
20260503184532 59 211 3.5 7.8 0.00 0.00 0.00 31 995.4
20260503183038 59 256 1.7 6.1 0.00 0.00 0.00 33 995.6
20260503181546 58 325 4.3 7.8 0.00 0.00 0.00 32 995.7
20260503180040 58 342 4.3 8.7 0.00 0.00 0.00 32 995.9
20260503174524 57 272 2.6 8.7 0.00 0.00 0.00 31 995.9
20260503173022 56 257 2.6 7.8 0.00 0.00 0.00 38 996.2
20260503171525 56 254 3.5 8.7 0.00 0.00 0.00 37 996.3
20260503081557 40 277 0.0 0.0 0.00 0.00 0.00 67 995.9